Year,Month,Day,Hour,Minute,Value (Times are PST for temperature in C)
2017,08,09,00,00,18.70
2017,08,09,00,01,18.70
2017,08,09,00,02,18.70
2017,08,09,00,03,18.70
2017,08,09,00,04,18.70
2017,08,09,00,05,18.70
2017,08,09,00,06,18.70
2017,08,09,00,07,18.70
2017,08,09,00,08,18.70
2017,08,09,00,09,18.60
2017,08,09,00,10,18.60
2017,08,09,00,11,18.60
2017,08,09,00,12,18.60
2017,08,09,00,13,18.60
2017,08,09,00,14,18.60
2017,08,09,00,15,18.60
2017,08,09,00,16,18.60
2017,08,09,00,17,18.60
2017,08,09,00,18,18.60
2017,08,09,00,19,18.60
2017,08,09,00,20,18.60
2017,08,09,00,21,18.60
2017,08,09,00,22,18.60
2017,08,09,00,23,18.60
2017,08,09,00,24,18.60
2017,08,09,00,25,18.60
2017,08,09,00,26,18.60
2017,08,09,00,27,18.60
2017,08,09,00,28,18.60
2017,08,09,00,29,18.60
2017,08,09,00,30,18.50
2017,08,09,00,31,18.50
2017,08,09,00,32,18.50
2017,08,09,00,33,18.50
2017,08,09,00,34,18.50
2017,08,09,00,35,18.50
2017,08,09,00,36,18.50
2017,08,09,00,37,18.50
2017,08,09,00,38,18.50
2017,08,09,00,39,18.50
2017,08,09,00,40,18.50
2017,08,09,00,41,18.50
2017,08,09,00,42,18.50
2017,08,09,00,43,18.50
2017,08,09,00,44,18.50
2017,08,09,00,45,18.50
2017,08,09,00,46,18.50
2017,08,09,00,47,18.50
2017,08,09,00,48,18.50
2017,08,09,00,49,18.50
2017,08,09,00,50,18.50
2017,08,09,00,51,18.50
2017,08,09,00,52,18.50
2017,08,09,00,53,18.60
2017,08,09,00,54,18.60
2017,08,09,00,55,18.60
2017,08,09,00,56,18.60
2017,08,09,00,57,18.60
2017,08,09,00,58,18.60
2017,08,09,00,59,18.60
2017,08,09,01,00,18.60
2017,08,09,01,01,18.60
2017,08,09,01,02,18.60
2017,08,09,01,03,18.60
2017,08,09,01,04,18.60
2017,08,09,01,05,18.60
2017,08,09,01,06,18.50
2017,08,09,01,07,18.50
2017,08,09,01,08,18.50
2017,08,09,01,09,18.50
2017,08,09,01,10,18.50
2017,08,09,01,11,18.50
2017,08,09,01,12,18.50
2017,08,09,01,13,18.50
2017,08,09,01,14,18.40
2017,08,09,01,15,18.40
2017,08,09,01,16,18.40
2017,08,09,01,17,18.40
2017,08,09,01,18,18.40
2017,08,09,01,19,18.40
2017,08,09,01,20,18.30
2017,08,09,01,21,18.30
2017,08,09,01,22,18.30
2017,08,09,01,23,18.30
2017,08,09,01,24,18.30
2017,08,09,01,25,18.20
2017,08,09,01,26,18.20
2017,08,09,01,27,18.20
2017,08,09,01,28,18.20
2017,08,09,01,29,18.20
2017,08,09,01,30,18.10
2017,08,09,01,31,18.10
2017,08,09,01,32,18.10
2017,08,09,01,33,18.10
2017,08,09,01,34,18.10
2017,08,09,01,35,18.00
2017,08,09,01,36,18.00
2017,08,09,01,37,18.00
2017,08,09,01,38,18.00
2017,08,09,01,39,17.90
2017,08,09,01,40,17.90
2017,08,09,01,41,17.90
2017,08,09,01,42,17.90
2017,08,09,01,43,17.90
2017,08,09,01,44,17.90
2017,08,09,01,45,17.80
2017,08,09,01,46,17.80
2017,08,09,01,47,17.80
2017,08,09,01,48,17.80
2017,08,09,01,49,17.80
2017,08,09,01,50,17.80
2017,08,09,01,51,17.80
2017,08,09,01,52,17.70
2017,08,09,01,53,17.70
2017,08,09,01,54,17.70
2017,08,09,01,55,17.70
2017,08,09,01,56,17.70
2017,08,09,01,57,17.70
2017,08,09,01,58,17.70
2017,08,09,01,59,17.70
2017,08,09,02,00,17.70
2017,08,09,02,01,17.70
2017,08,09,02,02,17.70
2017,08,09,02,03,17.70
2017,08,09,02,04,17.70
2017,08,09,02,05,17.70
2017,08,09,02,06,17.70
2017,08,09,02,07,17.70
2017,08,09,02,08,17.70
2017,08,09,02,09,17.70
2017,08,09,02,10,17.70
2017,08,09,02,11,17.70
2017,08,09,02,12,17.70
2017,08,09,02,13,17.70
2017,08,09,02,14,17.70
2017,08,09,02,15,17.70
2017,08,09,02,16,17.70
2017,08,09,02,17,17.70
2017,08,09,02,18,17.70
2017,08,09,02,19,17.70
2017,08,09,02,20,17.70
2017,08,09,02,21,17.70
2017,08,09,02,22,17.70
2017,08,09,02,23,17.60
2017,08,09,02,24,17.60
2017,08,09,02,25,17.60
2017,08,09,02,26,17.60
2017,08,09,02,27,17.60
2017,08,09,02,28,17.60
2017,08,09,02,29,17.60
2017,08,09,02,30,17.50
2017,08,09,02,31,17.50
2017,08,09,02,32,17.50
2017,08,09,02,33,17.40
2017,08,09,02,34,17.40
2017,08,09,02,35,17.40
2017,08,09,02,36,17.40
2017,08,09,02,37,17.40
2017,08,09,02,38,17.40
2017,08,09,02,39,17.40
2017,08,09,02,40,17.40
2017,08,09,02,41,17.40
2017,08,09,02,42,17.40
2017,08,09,02,43,17.40
2017,08,09,02,44,17.40
2017,08,09,02,45,17.40
2017,08,09,02,46,17.40
2017,08,09,02,47,17.40
2017,08,09,02,48,17.30
2017,08,09,02,49,17.30
2017,08,09,02,50,17.30
2017,08,09,02,51,17.30
2017,08,09,02,52,17.30
2017,08,09,02,53,17.30
2017,08,09,02,54,17.30
2017,08,09,02,55,17.30
2017,08,09,02,56,17.30
2017,08,09,02,57,17.30
2017,08,09,02,58,17.30
2017,08,09,02,59,17.30
2017,08,09,03,00,17.30
2017,08,09,03,01,17.30
2017,08,09,03,02,17.30
2017,08,09,03,03,17.30
2017,08,09,03,04,17.30
2017,08,09,03,05,17.30
2017,08,09,03,06,17.30
2017,08,09,03,07,17.30
2017,08,09,03,08,17.30
2017,08,09,03,09,17.30
2017,08,09,03,10,17.40
2017,08,09,03,11,17.40
2017,08,09,03,12,17.40
2017,08,09,03,13,17.40
2017,08,09,03,14,17.40
2017,08,09,03,15,17.40
2017,08,09,03,16,17.40
2017,08,09,03,17,17.40
2017,08,09,03,18,17.40
2017,08,09,03,19,17.40
2017,08,09,03,20,17.40
2017,08,09,03,21,17.40
2017,08,09,03,22,17.40
2017,08,09,03,23,17.30
2017,08,09,03,24,17.30
2017,08,09,03,25,17.30
2017,08,09,03,26,17.30
2017,08,09,03,27,17.30
2017,08,09,03,28,17.30
2017,08,09,03,29,17.30
2017,08,09,03,30,17.30
2017,08,09,03,31,17.20
2017,08,09,03,32,17.20
2017,08,09,03,33,17.20
2017,08,09,03,34,17.20
2017,08,09,03,35,17.20
2017,08,09,03,36,17.20
2017,08,09,03,37,17.20
2017,08,09,03,38,17.20
2017,08,09,03,39,17.20
2017,08,09,03,40,17.20
2017,08,09,03,41,17.10
2017,08,09,03,42,17.10
2017,08,09,03,43,17.10
2017,08,09,03,44,17.10
2017,08,09,03,45,17.10
2017,08,09,03,46,17.10
2017,08,09,03,47,17.10
2017,08,09,03,48,17.10
2017,08,09,03,49,17.10
2017,08,09,03,50,17.10
2017,08,09,03,51,17.10
2017,08,09,03,52,17.10
2017,08,09,03,53,17.10
2017,08,09,03,54,17.10
2017,08,09,03,55,17.10
2017,08,09,03,56,17.10
2017,08,09,03,57,17.10
2017,08,09,03,58,17.20
2017,08,09,03,59,17.20
2017,08,09,04,00,17.20
2017,08,09,04,01,17.20
2017,08,09,04,02,17.20
2017,08,09,04,03,17.20
2017,08,09,04,04,17.20
2017,08,09,04,05,17.30
2017,08,09,04,06,17.30
2017,08,09,04,07,17.30
2017,08,09,04,08,17.30
2017,08,09,04,09,17.30
2017,08,09,04,10,17.30
2017,08,09,04,11,17.30
2017,08,09,04,12,17.30
2017,08,09,04,13,17.30
2017,08,09,04,14,17.30
2017,08,09,04,15,17.20
2017,08,09,04,16,17.20
2017,08,09,04,17,17.20
2017,08,09,04,18,17.20
2017,08,09,04,19,17.20
2017,08,09,04,20,17.10
2017,08,09,04,21,17.10
2017,08,09,04,22,17.10
2017,08,09,04,23,17.10
2017,08,09,04,24,17.10
2017,08,09,04,25,17.10
2017,08,09,04,26,17.00
2017,08,09,04,27,17.00
2017,08,09,04,28,17.00
2017,08,09,04,29,17.00
2017,08,09,04,30,17.00
2017,08,09,04,31,16.90
2017,08,09,04,32,16.90
2017,08,09,04,33,16.90
2017,08,09,04,34,16.90
2017,08,09,04,35,16.90
2017,08,09,04,36,16.90
2017,08,09,04,37,16.90
2017,08,09,04,38,16.80
2017,08,09,04,39,16.80
2017,08,09,04,40,16.80
2017,08,09,04,41,16.80
2017,08,09,04,42,16.80
2017,08,09,04,43,16.80
2017,08,09,04,44,16.80
2017,08,09,04,45,16.70
2017,08,09,04,46,16.70
2017,08,09,04,47,16.70
2017,08,09,04,48,16.70
2017,08,09,04,49,16.70
2017,08,09,04,50,16.70
2017,08,09,04,51,16.60
2017,08,09,04,52,16.60
2017,08,09,04,53,16.60
2017,08,09,04,54,16.60
2017,08,09,04,55,16.60
2017,08,09,04,56,16.50
2017,08,09,04,57,16.50
2017,08,09,04,58,16.50
2017,08,09,04,59,16.50
2017,08,09,05,00,16.50
2017,08,09,05,01,16.40
2017,08,09,05,02,16.40
2017,08,09,05,03,16.40
2017,08,09,05,04,16.40
2017,08,09,05,05,16.30
2017,08,09,05,06,16.30
2017,08,09,05,07,16.30
2017,08,09,05,08,16.30
2017,08,09,05,09,16.20
2017,08,09,05,10,16.20
2017,08,09,05,11,16.20
2017,08,09,05,12,16.20
2017,08,09,05,13,16.20
2017,08,09,05,14,16.20
2017,08,09,05,15,16.20
2017,08,09,05,16,16.20
2017,08,09,05,17,16.20
2017,08,09,05,18,16.20
2017,08,09,05,19,16.20
2017,08,09,05,20,16.30
2017,08,09,05,21,16.30
2017,08,09,05,22,16.40
2017,08,09,05,23,16.40
2017,08,09,05,24,16.50
2017,08,09,05,25,16.50
2017,08,09,05,26,16.60
2017,08,09,05,27,16.60
2017,08,09,05,28,16.60
2017,08,09,05,29,16.70
2017,08,09,05,30,16.70
2017,08,09,05,31,16.70
2017,08,09,05,32,16.70
2017,08,09,05,33,16.70
2017,08,09,05,34,16.70
2017,08,09,05,35,16.70
2017,08,09,05,36,16.70
2017,08,09,05,37,16.70
2017,08,09,05,38,16.70
2017,08,09,05,39,16.70
2017,08,09,05,40,16.70
2017,08,09,05,41,16.70
2017,08,09,05,42,16.70
2017,08,09,05,43,16.70
2017,08,09,05,44,16.70
2017,08,09,05,45,16.70
2017,08,09,05,46,16.70
2017,08,09,05,47,16.70
2017,08,09,05,48,16.70
2017,08,09,05,49,16.70
2017,08,09,05,50,16.70
2017,08,09,05,51,16.70
2017,08,09,05,52,16.70
2017,08,09,05,53,16.70
2017,08,09,05,54,16.70
2017,08,09,05,55,16.60
2017,08,09,05,56,16.60
2017,08,09,05,57,16.60
2017,08,09,05,58,16.60
2017,08,09,05,59,16.60
2017,08,09,06,00,16.60
2017,08,09,06,01,16.60
2017,08,09,06,02,16.60
2017,08,09,06,03,16.60
2017,08,09,06,04,16.60
2017,08,09,06,05,16.60
2017,08,09,06,06,16.60
2017,08,09,06,07,16.60
2017,08,09,06,08,16.60
2017,08,09,06,09,16.60
2017,08,09,06,10,16.60
2017,08,09,06,11,16.60
2017,08,09,06,12,16.60
2017,08,09,06,13,16.60
2017,08,09,06,14,16.60
2017,08,09,06,15,16.60
2017,08,09,06,16,16.50
2017,08,09,06,17,16.60
2017,08,09,06,18,16.50
2017,08,09,06,19,16.50
2017,08,09,06,20,16.50
2017,08,09,06,21,16.50
2017,08,09,06,22,16.50
2017,08,09,06,23,16.40
2017,08,09,06,24,16.40
2017,08,09,06,25,16.40
2017,08,09,06,26,16.40
2017,08,09,06,27,16.40
2017,08,09,06,28,16.40
2017,08,09,06,29,16.40
2017,08,09,06,30,16.40
2017,08,09,06,31,16.40
2017,08,09,06,32,16.40
2017,08,09,06,33,16.40
2017,08,09,06,34,16.40
2017,08,09,06,35,16.40
2017,08,09,06,36,16.40
2017,08,09,06,37,16.40
2017,08,09,06,38,16.40
2017,08,09,06,39,16.40
2017,08,09,06,40,16.40
2017,08,09,06,41,16.40
2017,08,09,06,42,16.40
2017,08,09,06,43,16.40
2017,08,09,06,44,16.40
2017,08,09,06,45,16.40
2017,08,09,06,46,16.40
2017,08,09,06,47,16.40
2017,08,09,06,48,16.40
2017,08,09,06,49,16.40
2017,08,09,06,50,16.40
2017,08,09,06,51,16.40
2017,08,09,06,52,16.40
2017,08,09,06,53,16.40
2017,08,09,06,54,16.40
2017,08,09,06,55,16.40
2017,08,09,06,56,16.40
2017,08,09,06,57,16.40
2017,08,09,06,58,16.40
2017,08,09,06,59,16.40
2017,08,09,07,00,16.40
2017,08,09,07,01,16.40
2017,08,09,07,02,16.40
2017,08,09,07,03,16.40
2017,08,09,07,04,16.40
2017,08,09,07,05,16.40
2017,08,09,07,06,16.40
2017,08,09,07,07,16.40
2017,08,09,07,08,16.40
2017,08,09,07,09,16.40
2017,08,09,07,10,16.40
2017,08,09,07,11,16.40
2017,08,09,07,12,16.40
2017,08,09,07,13,16.40
2017,08,09,07,14,16.40
2017,08,09,07,15,16.40
2017,08,09,07,16,16.40
2017,08,09,07,17,16.50
2017,08,09,07,18,16.50
2017,08,09,07,19,16.50
2017,08,09,07,20,16.60
2017,08,09,07,21,16.60
2017,08,09,07,22,16.60
2017,08,09,07,23,16.60
2017,08,09,07,24,16.60
2017,08,09,07,25,16.70
2017,08,09,07,26,16.70
2017,08,09,07,27,16.70
2017,08,09,07,28,16.70
2017,08,09,07,29,16.70
2017,08,09,07,30,16.70
2017,08,09,07,31,16.80
2017,08,09,07,32,16.80
2017,08,09,07,33,16.80
2017,08,09,07,34,16.80
2017,08,09,07,35,16.90
2017,08,09,07,36,16.90
2017,08,09,07,37,17.00
2017,08,09,07,38,17.00
2017,08,09,07,39,17.10
2017,08,09,07,40,17.10
2017,08,09,07,41,17.10
2017,08,09,07,42,17.20
2017,08,09,07,43,17.20
2017,08,09,07,44,17.20
2017,08,09,07,45,17.30
2017,08,09,07,46,17.30
2017,08,09,07,47,17.40
2017,08,09,07,48,17.40
2017,08,09,07,49,17.40
2017,08,09,07,50,17.50
2017,08,09,07,51,17.50
2017,08,09,07,52,17.50
2017,08,09,07,53,17.60
2017,08,09,07,54,17.60
2017,08,09,07,55,17.60
2017,08,09,07,56,17.70
2017,08,09,07,57,17.70
2017,08,09,07,58,17.70
2017,08,09,07,59,17.70
2017,08,09,08,00,17.80
2017,08,09,08,01,17.80
2017,08,09,08,02,17.90
2017,08,09,08,03,17.90
2017,08,09,08,04,17.90
2017,08,09,08,05,18.00
2017,08,09,08,06,18.00
2017,08,09,08,07,18.10
2017,08,09,08,08,18.10
2017,08,09,08,09,18.10
2017,08,09,08,10,18.20
2017,08,09,08,11,18.20
2017,08,09,08,12,18.20
2017,08,09,08,13,18.30
2017,08,09,08,14,18.30
2017,08,09,08,15,18.40
2017,08,09,08,16,18.40
2017,08,09,08,17,18.50
2017,08,09,08,18,18.50
2017,08,09,08,19,18.60
2017,08,09,08,20,18.60
2017,08,09,08,21,18.60
2017,08,09,08,22,18.70
2017,08,09,08,23,18.70
2017,08,09,08,24,18.80
2017,08,09,08,25,18.80
2017,08,09,08,26,18.90
2017,08,09,08,27,18.90
2017,08,09,08,28,19.00
2017,08,09,08,29,19.00
2017,08,09,08,30,19.10
2017,08,09,08,31,19.10
2017,08,09,08,32,19.20
2017,08,09,08,33,19.20
2017,08,09,08,34,19.30
2017,08,09,08,35,19.30
2017,08,09,08,36,19.30
2017,08,09,08,37,19.40
2017,08,09,08,38,19.40
2017,08,09,08,39,19.50
2017,08,09,08,40,19.60
2017,08,09,08,41,19.60
2017,08,09,08,42,19.60
2017,08,09,08,43,19.70
2017,08,09,08,44,19.80
2017,08,09,08,45,19.80
2017,08,09,08,46,19.80
2017,08,09,08,47,19.90
2017,08,09,08,48,19.90
2017,08,09,08,49,20.00
2017,08,09,08,50,20.00
2017,08,09,08,51,20.10
2017,08,09,08,52,20.10
2017,08,09,08,53,20.20
2017,08,09,08,54,20.20
2017,08,09,08,55,20.30
2017,08,09,08,56,20.30
2017,08,09,08,57,20.30
2017,08,09,08,58,20.40
2017,08,09,08,59,20.40
2017,08,09,09,00,20.50
2017,08,09,09,01,20.60
2017,08,09,09,02,20.60
2017,08,09,09,03,20.70
2017,08,09,09,04,20.70
2017,08,09,09,05,20.80
2017,08,09,09,06,20.90
2017,08,09,09,07,20.90
2017,08,09,09,08,21.00
2017,08,09,09,09,21.10
2017,08,09,09,10,21.10
2017,08,09,09,11,21.20
2017,08,09,09,12,21.30
2017,08,09,09,13,21.40
2017,08,09,09,14,21.50
2017,08,09,09,15,21.50
2017,08,09,09,16,21.60
2017,08,09,09,17,21.70
2017,08,09,09,18,21.80
2017,08,09,09,19,22.00
2017,08,09,09,20,22.10
2017,08,09,09,21,22.20
2017,08,09,09,22,22.30
2017,08,09,09,23,22.40
2017,08,09,09,24,22.50
2017,08,09,09,25,22.70
2017,08,09,09,26,22.80
2017,08,09,09,27,22.90
2017,08,09,09,28,22.90
2017,08,09,09,29,23.10
2017,08,09,09,30,23.20
2017,08,09,09,31,23.20
2017,08,09,09,32,23.30
2017,08,09,09,33,23.40
2017,08,09,09,34,23.50
2017,08,09,09,35,23.60
2017,08,09,09,36,23.70
2017,08,09,09,37,23.70
2017,08,09,09,38,23.80
2017,08,09,09,39,23.90
2017,08,09,09,40,23.90
2017,08,09,09,41,24.00
2017,08,09,09,42,24.10
2017,08,09,09,43,24.10
2017,08,09,09,44,24.20
2017,08,09,09,45,24.20
2017,08,09,09,46,24.30
2017,08,09,09,47,24.30
2017,08,09,09,48,24.30
2017,08,09,09,49,24.30
2017,08,09,09,50,24.30
2017,08,09,09,51,24.30
2017,08,09,09,52,24.20
2017,08,09,09,53,24.20
2017,08,09,09,54,24.20
2017,08,09,09,55,24.10
2017,08,09,09,56,24.10
2017,08,09,09,57,24.10
2017,08,09,09,58,24.10
2017,08,09,09,59,24.10
2017,08,09,10,00,24.10
2017,08,09,10,01,24.10
2017,08,09,10,02,24.10
2017,08,09,10,03,24.10
2017,08,09,10,04,24.00
2017,08,09,10,05,24.00
2017,08,09,10,06,24.00
2017,08,09,10,07,24.10
2017,08,09,10,08,24.10
2017,08,09,10,09,24.10
2017,08,09,10,10,24.10
2017,08,09,10,11,24.20
2017,08,09,10,12,24.20
2017,08,09,10,13,24.20
2017,08,09,10,14,24.20
2017,08,09,10,15,24.20
2017,08,09,10,16,24.20
2017,08,09,10,17,24.20
2017,08,09,10,18,24.20
2017,08,09,10,19,24.20
2017,08,09,10,20,24.30
2017,08,09,10,21,24.30
2017,08,09,10,22,24.30
2017,08,09,10,23,24.30
2017,08,09,10,24,24.40
2017,08,09,10,25,24.40
2017,08,09,10,26,24.50
2017,08,09,10,27,24.50
2017,08,09,10,28,24.60
2017,08,09,10,29,24.60
2017,08,09,10,30,24.70
2017,08,09,10,31,24.70
2017,08,09,10,32,24.80
2017,08,09,10,33,24.80
2017,08,09,10,34,24.80
2017,08,09,10,35,24.90
2017,08,09,10,36,24.90
2017,08,09,10,37,24.90
2017,08,09,10,38,24.90
2017,08,09,10,39,24.90
2017,08,09,10,40,25.00
2017,08,09,10,41,25.00
2017,08,09,10,42,25.00
2017,08,09,10,43,25.00
2017,08,09,10,44,25.10
2017,08,09,10,45,25.10
2017,08,09,10,46,25.10
2017,08,09,10,47,25.10
2017,08,09,10,48,25.10
2017,08,09,10,49,25.20
2017,08,09,10,50,25.20
2017,08,09,10,51,25.20
2017,08,09,10,52,25.20
2017,08,09,10,53,25.20
2017,08,09,10,54,25.30
2017,08,09,10,55,25.30
2017,08,09,10,56,25.40
2017,08,09,10,57,25.40
2017,08,09,10,58,25.40
2017,08,09,10,59,25.40
2017,08,09,11,00,25.40
2017,08,09,11,01,25.40
2017,08,09,11,02,25.30
2017,08,09,11,03,25.30
2017,08,09,11,04,25.30
2017,08,09,11,05,25.30
2017,08,09,11,06,25.30
2017,08,09,11,07,25.30
2017,08,09,11,08,25.30
2017,08,09,11,09,25.30
2017,08,09,11,10,25.30
2017,08,09,11,11,25.30
2017,08,09,11,12,25.30
2017,08,09,11,13,25.30
2017,08,09,11,14,25.30
2017,08,09,11,15,25.30
2017,08,09,11,16,25.30
2017,08,09,11,17,25.30
2017,08,09,11,18,25.30
2017,08,09,11,19,25.30
2017,08,09,11,20,25.30
2017,08,09,11,21,25.30
2017,08,09,11,22,25.30
2017,08,09,11,23,25.40
2017,08,09,11,24,25.40
2017,08,09,11,25,25.40
2017,08,09,11,26,25.40
2017,08,09,11,27,25.40
2017,08,09,11,28,25.40
2017,08,09,11,29,25.40
2017,08,09,11,30,25.40
2017,08,09,11,31,25.40
2017,08,09,11,32,25.40
2017,08,09,11,33,25.40
2017,08,09,11,34,25.40
2017,08,09,11,35,25.40
2017,08,09,11,36,25.40
2017,08,09,11,37,25.40
2017,08,09,11,38,25.40
2017,08,09,11,39,25.50
2017,08,09,11,40,25.50
2017,08,09,11,41,25.50
2017,08,09,11,42,25.60
2017,08,09,11,43,25.60
2017,08,09,11,44,25.60
2017,08,09,11,45,25.60
2017,08,09,11,46,25.60
2017,08,09,11,47,25.60
2017,08,09,11,48,25.60
2017,08,09,11,49,25.60
2017,08,09,11,50,25.60
2017,08,09,11,51,25.50
2017,08,09,11,52,25.40
2017,08,09,11,53,25.40
2017,08,09,11,54,25.40
2017,08,09,11,55,25.40
2017,08,09,11,56,25.40
2017,08,09,11,57,25.50
2017,08,09,11,58,25.50
2017,08,09,11,59,25.60
2017,08,09,12,00,25.60
2017,08,09,12,01,25.60
2017,08,09,12,02,25.60
2017,08,09,12,03,25.60
2017,08,09,12,04,25.60
2017,08,09,12,05,25.60
2017,08,09,12,06,25.60
2017,08,09,12,07,25.60
2017,08,09,12,08,25.60
2017,08,09,12,09,25.60
2017,08,09,12,10,25.60
2017,08,09,12,11,25.60
2017,08,09,12,12,25.60
2017,08,09,12,13,25.60
2017,08,09,12,14,25.60
2017,08,09,12,15,25.60
2017,08,09,12,16,25.60
2017,08,09,12,17,25.50
2017,08,09,12,18,25.50
2017,08,09,12,19,25.50
2017,08,09,12,20,25.50
2017,08,09,12,21,25.50
2017,08,09,12,22,25.50
2017,08,09,12,23,25.50
2017,08,09,12,24,25.40
2017,08,09,12,25,25.40
2017,08,09,12,26,25.40
2017,08,09,12,27,25.40
2017,08,09,12,28,25.40
2017,08,09,12,29,25.30
2017,08,09,12,30,25.30
2017,08,09,12,31,25.30
2017,08,09,12,32,25.30
2017,08,09,12,33,25.30
2017,08,09,12,34,25.30
2017,08,09,12,35,25.30
2017,08,09,12,36,25.30
2017,08,09,12,37,25.30
2017,08,09,12,38,25.30
2017,08,09,12,39,25.30
2017,08,09,12,40,25.40
2017,08,09,12,41,25.40
2017,08,09,12,42,25.40
2017,08,09,12,43,25.50
2017,08,09,12,44,25.50
2017,08,09,12,45,25.60
2017,08,09,12,46,25.60
2017,08,09,12,47,25.60
2017,08,09,12,48,25.60
2017,08,09,12,49,25.60
2017,08,09,12,50,25.60
2017,08,09,12,51,25.60
2017,08,09,12,52,25.60
2017,08,09,12,53,25.60
2017,08,09,12,54,25.60
2017,08,09,12,55,25.60
2017,08,09,12,56,25.70
2017,08,09,12,57,25.70
2017,08,09,12,58,25.70
2017,08,09,12,59,25.70
2017,08,09,13,00,25.80
2017,08,09,13,01,25.80
2017,08,09,13,02,25.80
2017,08,09,13,03,25.90
2017,08,09,13,04,25.90
2017,08,09,13,05,25.90
2017,08,09,13,06,25.90
2017,08,09,13,07,26.00
2017,08,09,13,08,26.00
2017,08,09,13,09,26.10
2017,08,09,13,10,26.10
2017,08,09,13,11,26.10
2017,08,09,13,12,26.10
2017,08,09,13,13,26.10
2017,08,09,13,14,26.10
2017,08,09,13,15,26.10
2017,08,09,13,16,26.10
2017,08,09,13,17,26.10
2017,08,09,13,18,26.10
2017,08,09,13,19,26.10
2017,08,09,13,20,26.10
2017,08,09,13,21,26.10
2017,08,09,13,22,26.20
2017,08,09,13,23,26.20
2017,08,09,13,24,26.20
2017,08,09,13,25,26.20
2017,08,09,13,26,26.20
2017,08,09,13,27,26.30
2017,08,09,13,28,26.30
2017,08,09,13,29,26.30
2017,08,09,13,30,26.30
2017,08,09,13,31,26.30
2017,08,09,13,32,26.30
2017,08,09,13,33,26.30
2017,08,09,13,34,26.30
2017,08,09,13,35,26.30
2017,08,09,13,36,26.40
2017,08,09,13,37,26.40
2017,08,09,13,38,26.40
2017,08,09,13,39,26.40
2017,08,09,13,40,26.40
2017,08,09,13,41,26.40
2017,08,09,13,42,26.40
2017,08,09,13,43,26.40
2017,08,09,13,44,26.40
2017,08,09,13,45,26.50
2017,08,09,13,46,26.50
2017,08,09,13,47,26.50
2017,08,09,13,48,26.50
2017,08,09,13,49,26.50
2017,08,09,13,50,26.50
2017,08,09,13,51,26.50
2017,08,09,13,52,26.50
2017,08,09,13,53,26.50
2017,08,09,13,54,26.50
2017,08,09,13,55,26.60
2017,08,09,13,56,26.60
2017,08,09,13,57,26.60
2017,08,09,13,58,26.60
2017,08,09,13,59,26.60
2017,08,09,14,00,26.60
2017,08,09,14,01,26.60
2017,08,09,14,02,26.60
2017,08,09,14,03,26.70
2017,08,09,14,04,26.70
2017,08,09,14,05,26.70
2017,08,09,14,06,26.70
2017,08,09,14,07,26.70
2017,08,09,14,08,26.70
2017,08,09,14,09,26.70
2017,08,09,14,10,26.80
2017,08,09,14,11,26.80
2017,08,09,14,12,26.80
2017,08,09,14,13,26.80
2017,08,09,14,14,26.80
2017,08,09,14,15,26.90
2017,08,09,14,16,26.90
2017,08,09,14,17,26.90
2017,08,09,14,18,26.90
2017,08,09,14,19,26.90
2017,08,09,14,20,26.90
2017,08,09,14,21,26.90
2017,08,09,14,22,26.90
2017,08,09,14,23,27.00
2017,08,09,14,24,27.00
2017,08,09,14,25,27.00
2017,08,09,14,26,27.00
2017,08,09,14,27,27.00
2017,08,09,14,28,27.00
2017,08,09,14,29,27.00
2017,08,09,14,30,27.00
2017,08,09,14,31,27.00
2017,08,09,14,32,26.90
2017,08,09,14,33,26.90
2017,08,09,14,34,26.90
2017,08,09,14,35,26.90
2017,08,09,14,36,26.90
2017,08,09,14,37,26.90
2017,08,09,14,38,26.90
2017,08,09,14,39,26.90
2017,08,09,14,40,26.90
2017,08,09,14,41,26.90
2017,08,09,14,42,26.90
2017,08,09,14,43,26.90
2017,08,09,14,44,26.90
2017,08,09,14,45,26.90
2017,08,09,14,46,26.90
2017,08,09,14,47,26.90
2017,08,09,14,48,26.90
2017,08,09,14,49,26.90
2017,08,09,14,50,26.90
2017,08,09,14,51,26.80
2017,08,09,14,52,26.80
2017,08,09,14,53,26.80
2017,08,09,14,54,26.80
2017,08,09,14,55,26.80
2017,08,09,14,56,26.80
2017,08,09,14,57,26.80
2017,08,09,14,58,26.80
2017,08,09,14,59,26.80
2017,08,09,15,00,26.80
2017,08,09,15,01,26.70
2017,08,09,15,02,26.70
2017,08,09,15,03,26.70
2017,08,09,15,04,26.70
2017,08,09,15,05,26.70
2017,08,09,15,06,26.70
2017,08,09,15,07,26.70
2017,08,09,15,08,26.80
2017,08,09,15,09,26.80
2017,08,09,15,10,26.80
2017,08,09,15,11,26.80
2017,08,09,15,12,26.80
2017,08,09,15,13,26.80
2017,08,09,15,14,26.80
2017,08,09,15,15,26.90
2017,08,09,15,16,26.80
2017,08,09,15,17,26.80
2017,08,09,15,18,26.80
2017,08,09,15,19,26.80
2017,08,09,15,20,26.80
2017,08,09,15,21,26.80
2017,08,09,15,22,26.80
2017,08,09,15,23,26.80
2017,08,09,15,24,26.80
2017,08,09,15,25,26.80
2017,08,09,15,26,26.80
2017,08,09,15,27,26.80
2017,08,09,15,28,26.80
2017,08,09,15,29,26.80
2017,08,09,15,30,26.80
2017,08,09,15,31,26.80
2017,08,09,15,32,26.80
2017,08,09,15,33,26.90
2017,08,09,15,34,26.90
2017,08,09,15,35,26.90
2017,08,09,15,36,26.80
2017,08,09,15,37,26.80
2017,08,09,15,38,26.80
2017,08,09,15,39,26.80
2017,08,09,15,40,26.80
2017,08,09,15,41,26.80
2017,08,09,15,42,26.80
2017,08,09,15,43,26.80
2017,08,09,15,44,26.80
2017,08,09,15,45,26.80
2017,08,09,15,46,26.80
2017,08,09,15,47,26.80
2017,08,09,15,48,26.80
2017,08,09,15,49,26.70
2017,08,09,15,50,26.70
2017,08,09,15,51,26.70
2017,08,09,15,52,26.80
2017,08,09,15,53,26.80
2017,08,09,15,54,26.80
2017,08,09,15,55,26.80
2017,08,09,15,56,26.80
2017,08,09,15,57,26.80
2017,08,09,15,58,26.80
2017,08,09,15,59,26.80
2017,08,09,16,00,26.80
2017,08,09,16,01,26.90
2017,08,09,16,02,26.90
2017,08,09,16,03,26.90
2017,08,09,16,04,26.90
2017,08,09,16,05,26.90
2017,08,09,16,06,26.90
2017,08,09,16,07,27.00
2017,08,09,16,08,27.00
2017,08,09,16,09,27.00
2017,08,09,16,10,27.00
2017,08,09,16,11,27.00
2017,08,09,16,12,27.00
2017,08,09,16,13,26.90
2017,08,09,16,14,26.90
2017,08,09,16,15,26.90
2017,08,09,16,16,26.90
2017,08,09,16,17,26.90
2017,08,09,16,18,26.90
2017,08,09,16,19,26.90
2017,08,09,16,20,26.90
2017,08,09,16,21,26.90
2017,08,09,16,22,26.90
2017,08,09,16,23,26.90
2017,08,09,16,24,26.90
2017,08,09,16,25,26.90
2017,08,09,16,26,26.90
2017,08,09,16,27,26.90
2017,08,09,16,28,26.90
2017,08,09,16,29,26.90
2017,08,09,16,30,26.90
2017,08,09,16,31,26.90
2017,08,09,16,32,26.90
2017,08,09,16,33,26.80
2017,08,09,16,34,26.80
2017,08,09,16,35,26.80
2017,08,09,16,36,26.70
2017,08,09,16,37,26.70
2017,08,09,16,38,26.70
2017,08,09,16,39,26.70
2017,08,09,16,40,26.70
2017,08,09,16,41,26.70
2017,08,09,16,42,26.70
2017,08,09,16,43,26.70
2017,08,09,16,44,26.80
2017,08,09,16,45,26.80
2017,08,09,16,46,26.80
2017,08,09,16,47,26.80
2017,08,09,16,48,26.80
2017,08,09,16,49,26.80
2017,08,09,16,50,26.80
2017,08,09,16,51,26.80
2017,08,09,16,52,26.80
2017,08,09,16,53,26.80
2017,08,09,16,54,26.80
2017,08,09,16,55,26.80
2017,08,09,16,56,26.80
2017,08,09,16,57,26.80
2017,08,09,16,58,26.80
2017,08,09,16,59,26.80
2017,08,09,17,00,26.80
2017,08,09,17,01,26.70
2017,08,09,17,02,26.70
2017,08,09,17,03,26.60
2017,08,09,17,04,26.60
2017,08,09,17,05,26.60
2017,08,09,17,06,26.60
2017,08,09,17,07,26.50
2017,08,09,17,08,26.50
2017,08,09,17,09,26.50
2017,08,09,17,10,26.40
2017,08,09,17,11,26.40
2017,08,09,17,12,26.40
2017,08,09,17,13,26.40
2017,08,09,17,14,26.40
2017,08,09,17,15,26.40
2017,08,09,17,16,26.40
2017,08,09,17,17,26.40
2017,08,09,17,18,26.40
2017,08,09,17,19,26.40